Location: Thompson
(55.7500°N, 97.8670°W)
Time: 21:13:20
(UTC-05:00)

Amateur Radio Satellites - All Passes

Search period start: 23 March 2017 20:43
Search period end: 24 March 2017 20:43
Location: Thompson, 55.7500°N, 97.8670°W

Satellite Date Start Highest point End Downlink Frequencies (MHz)
Time Altitude Azimuth
CUBEBUG 2 23 Mar 20:43:35 20:48:21 74° 256° (WSW) 20:53:06 437.445
SO-50 23 Mar 20:57:43 21:01:39 27° 359° (N) 21:05:31 436.795
Oscar 11 23 Mar 21:04:21 21:08:38 65° 71° (ENE) 21:12:56 .
ZACube-1 23 Mar 21:05:27 21:10:00 80° 74° (ENE) 21:14:30 437.345
AAUSAT CUBESAT 2 23 Mar 21:29:59 21:33:46 36° 264° (W) 21:37:35 437.432
AO-73 23 Mar 21:35:56 21:40:27 63° 258° (WSW) 21:44:54 145.935
PCSat 23 Mar 21:36:33 21:39:52 17° 254° (WSW) 21:43:11 145.827
SEEDS 23 Mar 21:36:55 21:39:57 19° 271° (W) 21:42:59 437.485
CUTE 1.7 + AOD 2 23 Mar 21:38:31 21:40:49 14° 274° (W) 21:43:07 437.475
DELFI C3 23 Mar 21:43:00 21:46:49 53° 69° (ENE) 21:50:41 145.870
STRAND 1 23 Mar 21:43:07 21:48:15 71° 291° (WNW) 21:53:20 437.568
UWE-3 23 Mar 21:54:16 21:58:21 29° 267° (W) 22:02:24 435.000/436.395/437.385
O/OREOS (USA 219) 23 Mar 22:05:15 22:07:46 14° 338° (NNW) 22:10:19 437.305
M-CUBED/EXP-1 PRIME 23 Mar 22:07:41 22:11:06 22° 311° (NW) 22:14:37 437.505
TIGRISAT 23 Mar 22:17:43 22:19:14 11° 82° (E) 22:20:44 435.000
RS-15 23 Mar 22:21:30 22:33:57 84° 226° (SW) 22:45:56 29.354- 29.394
CUBEBUG 2 23 Mar 22:23:24 22:25:47 14° 277° (W) 22:28:10 437.445
UNISAT 6 23 Mar 22:26:07 22:28:38 15° 85° (E) 22:31:06 437.425
HO-68 23 Mar 22:32:51 22:35:49 13° 283° (WNW) 22:38:47 435.675
PRISM 23 Mar 22:35:42 22:39:16 27° 94° (E) 22:42:49 437.425
FO-29 23 Mar 22:37:14 22:41:07 16° 79° (ENE) 22:44:44 435.910
SO-50 23 Mar 22:38:53 22:43:08 37° 23° (NNE) 22:47:21 436.795
YUBILEINY 23 Mar 22:41:36 22:46:46 18° 292° (WNW) 22:51:56 435.215
Oscar 11 23 Mar 22:41:58 22:45:12 20° 270° (W) 22:48:27 .
LO-87 23 Mar 22:42:07 22:45:22 32° 65° (ENE) 22:48:39 145.935 - 145.965
ZACube-1 23 Mar 22:43:44 22:46:50 18° 272° (W) 22:49:55 437.345
VELOX 1 23 Mar 22:46:09 22:48:21 14° 49° (NE) 22:50:34 145.980
ESTCUBE 1 23 Mar 22:53:59 22:57:56 32° 61° (ENE) 23:01:54 437.505/2401.250
Tancredo 1 23 Mar 23:08:55 23:10:03 11° 145° (SE) 23:11:11 437.200
AO-73 23 Mar 23:16:31 23:17:35 11° 278° (W) 23:18:39 145.935
AO-85 23 Mar 23:16:52 23:20:58 46° 129° (SE) 23:24:51 145.980
DELFI C3 23 Mar 23:18:54 23:21:55 21° 269° (W) 23:24:59 145.870
UKube-1 23 Mar 23:21:40 23:22:43 11° 45° (NE) 23:23:46 .
STRAND 1 23 Mar 23:23:18 23:26:39 18° 312° (NW) 23:30:00 437.568
O/OREOS (USA 219) 23 Mar 23:48:06 23:49:15 11° 4° (N) 23:50:24 437.305
SPROUT 23 Mar 23:52:03 23:55:54 32° 62° (ENE) 23:59:47 437.525
TIGRISAT 23 Mar 23:52:20 23:56:51 69° 102° (ESE) 00:01:15 435.000
50 SAT 23 Mar 23:55:00 23:57:45 22° 61° (ENE) 00:00:31 437.505
UNISAT 6 24 Mar 00:01:32 00:06:06 86° 105° (ESE) 00:10:31 437.425
POLYITAN 1 24 Mar 00:02:50 00:04:41 13° 85° (E) 00:06:32 437.675
QB50P2 24 Mar 00:06:52 00:09:16 15° 86° (E) 00:11:38 145.880/145.840
DX 1 24 Mar 00:07:50 00:11:32 28° 59° (ENE) 00:15:15 434.975-435.025
PRISM 24 Mar 00:10:46 00:14:45 46° 294° (WNW) 00:18:44 437.425
LO-87 24 Mar 00:15:39 00:18:51 29° 265° (W) 00:22:05 145.935 - 145.965
BEESAT 3 24 Mar 00:15:53 00:19:05 24° 120° (ESE) 00:22:20 437.485
SO-50 24 Mar 00:19:25 00:23:58 74° 224° (SW) 00:28:26 436.795
VELOX 1 24 Mar 00:19:39 00:24:01 62° 69° (ENE) 00:28:26 145.980
FO-29 24 Mar 00:21:04 00:27:38 72° 103° (ESE) 00:33:23 435.910
DUCHIFAT 1 24 Mar 00:23:42 00:26:24 16° 88° (E) 00:29:04 145.980
BEESAT 2 24 Mar 00:25:39 00:27:56 15° 114° (ESE) 00:30:12 435.950
ISS 24 Mar 00:28:53 00:31:42 26° 160° (SSE) 00:34:32 437.550
ESTCUBE 1 24 Mar 00:30:20 00:34:38 45° 261° (W) 00:38:58 437.505/2401.250
RS-15 24 Mar 00:34:31 00:44:56 35° 254° (WSW) 00:55:03 29.354- 29.394
Tancredo 1 24 Mar 00:42:39 00:45:29 30° 164° (SSE) 00:48:21 437.200
BUGSAT 1 24 Mar 00:53:08 00:54:55 12° 85° (E) 00:56:41 437.445
UKube-1 24 Mar 00:53:39 00:57:48 47° 66° (ENE) 01:01:58 .
AO-85 24 Mar 00:57:24 01:01:25 43° 330° (NNW) 01:05:16 145.980
AIST 2D 24 Mar 00:59:13 01:02:42 60° 102° (ESE) 01:06:10 435.315
NANOSAT C BR1 24 Mar 01:07:15 01:11:17 40° 98° (E) 01:15:16 145.865
EO-79 24 Mar 01:09:48 01:13:56 45° 99° (E) 01:18:00 145.935-145.965
BEESAT 24 Mar 01:26:12 01:29:12 17° 49° (NE) 01:32:12 436.000
O/OREOS (USA 219) 24 Mar 01:27:19 01:30:34 19° 30° (NNE) 01:33:50 437.305
50 SAT 24 Mar 01:27:20 01:30:38 41° 260° (W) 01:33:58 437.505
SPROUT 24 Mar 01:27:41 01:31:46 41° 262° (W) 01:35:52 437.525
TIGRISAT 24 Mar 01:29:38 01:33:10 23° 304° (WNW) 01:36:36 435.000
POLYITAN 1 24 Mar 01:36:56 01:41:14 79° 105° (ESE) 01:45:28 437.675
UNISAT 6 24 Mar 01:39:05 01:42:16 19° 307° (NW) 01:45:23 437.425
ITUPSAT 1 24 Mar 01:39:45 01:43:12 20° 52° (NE) 01:46:39 437.325
QB50P2 24 Mar 01:41:24 01:45:43 89° 316° (NW) 01:49:58 145.880/145.840
DX 1 24 Mar 01:43:16 01:47:31 51° 259° (W) 01:51:49 434.975-435.025
BEESAT 3 24 Mar 01:52:24 01:56:22 70° 321° (NW) 02:00:24 437.485
VELOX 1 24 Mar 01:57:26 02:00:52 22° 269° (W) 02:04:21 145.980
DUCHIFAT 1 24 Mar 01:58:23 02:02:39 79° 288° (WNW) 02:06:51 145.980
SO-50 24 Mar 02:00:57 02:03:44 16° 246° (WSW) 02:06:29 436.795
BEESAT 2 24 Mar 02:01:04 02:05:04 76° 134° (SE) 02:09:07 435.950
ISS 24 Mar 02:04:38 02:07:45 40° 179° (S) 02:10:53 437.550
FO-29 24 Mar 02:06:31 02:12:13 32° 308° (NW) 02:17:21 435.910
MOZHAYETS 4 24 Mar 02:10:08 02:12:57 16° 51° (NE) 02:15:47
Tancredo 1 24 Mar 02:18:14 02:21:16 39° 183° (S) 02:24:17 437.200
BUGSAT 1 24 Mar 02:26:46 02:31:02 78° 103° (ESE) 02:35:13 437.445
UKube-1 24 Mar 02:30:20 02:34:02 27° 266° (W) 02:37:47 .
Gurwin Techsat 1B 24 Mar 02:32:23 02:36:37 23° 89° (E) 02:40:49 435.225
AIST 2D 24 Mar 02:33:13 02:35:35 17° 301° (WNW) 02:37:57 435.315
AO-85 24 Mar 02:39:22 02:42:39 23° 353° (N) 02:45:52 145.980
Oscar 19 24 Mar 02:41:51 02:46:43 40° 97° (E) 02:51:35 437.125/150
NANOSAT C BR1 24 Mar 02:43:09 02:46:57 32° 298° (WNW) 02:50:43 145.865
EO-79 24 Mar 02:45:51 02:49:34 29° 299° (WNW) 02:53:14 145.935-145.965
CUBESAT XI-V 24 Mar 02:56:33 02:57:24 10° 44° (NE) 02:58:16 437.345
BEESAT 24 Mar 03:01:29 03:06:15 72° 70° (ENE) 03:11:02 436.000
O/OREOS (USA 219) 24 Mar 03:06:21 03:10:56 60° 53° (NE) 03:15:30 437.305
AO-7 24 Mar 03:07:25 03:10:50 13° 76° (ENE) 03:14:15 .
POLYITAN 1 24 Mar 03:13:32 03:16:33 19° 305° (NW) 03:19:34 437.675
ITUPSAT 1 24 Mar 03:15:39 03:20:28 90° 74° (ENE) 03:25:18 437.325
QB50P2 24 Mar 03:18:10 03:20:57 17° 307° (NW) 03:23:43 145.880/145.840
BEESAT 3 24 Mar 03:31:07 03:34:34 27° 344° (NNW) 03:38:02 437.485
DUCHIFAT 1 24 Mar 03:35:11 03:37:41 15° 308° (NW) 03:40:10 145.980
BEESAT 2 24 Mar 03:39:32 03:43:12 32° 337° (NNW) 03:46:54 435.950
ISS 24 Mar 03:40:57 03:43:48 27° 200° (SSW) 03:46:40 437.550
MOZHAYETS 4 24 Mar 03:44:50 03:49:26 75° 73° (ENE) 03:54:02
KKS-1 24 Mar 03:48:23 03:52:12 28° 59° (ENE) 03:56:04 437.445
FO-29 24 Mar 03:53:02 03:55:17 12° 333° (NNW) 03:57:28 435.910
Tancredo 1 24 Mar 03:54:21 03:56:57 23° 203° (SSW) 03:59:33 437.200
BUGSAT 1 24 Mar 04:02:56 04:05:55 19° 305° (NW) 04:08:54 437.445
Gurwin Techsat 1B 24 Mar 04:11:48 04:17:09 75° 291° (WNW) 04:22:28 435.225
M-CUBED/EXP-1 PRIME 24 Mar 04:19:44 04:21:33 13° 40° (NE) 04:23:27 437.505
AO-85 24 Mar 04:20:39 04:24:06 28° 18° (NNE) 04:27:32 145.980
Oscar 19 24 Mar 04:21:15 04:26:06 43° 298° (WNW) 04:30:58 437.125/150
ITAMSAT 1 24 Mar 04:22:21 04:27:07 34° 95° (E) 04:31:50 435.822/435.867
CUBESAT XI-V 24 Mar 04:29:22 04:33:43 43° 65° (ENE) 04:38:05 437.345
STARS 24 Mar 04:32:36 04:36:35 34° 61° (ENE) 04:40:35 437.465
BEESAT 24 Mar 04:40:55 04:44:33 21° 270° (W) 04:48:12 436.000
O/OREOS (USA 219) 24 Mar 04:46:13 04:50:04 26° 254° (WSW) 04:53:53 437.305
ITUPSAT 1 24 Mar 04:55:53 04:59:00 17° 273° (W) 05:02:07 437.325
AO-7 24 Mar 04:57:52 05:05:55 50° 101° (E) 05:13:53 .
BEESAT 3 24 Mar 05:09:58 05:13:15 23° 7° (N) 05:16:31 437.485
BEESAT 2 24 Mar 05:18:43 05:21:59 22° 0° (N) 05:25:14 435.950
MOZHAYETS 4 24 Mar 05:23:50 05:27:09 19° 272° (W) 05:30:27
KKS-1 24 Mar 05:24:12 05:28:35 52° 259° (W) 05:33:00 437.445
STRAND 1 24 Mar 05:50:50 05:54:08 17° 48° (NE) 05:57:27 437.568
M-CUBED/EXP-1 PRIME 24 Mar 05:51:26 05:55:09 55° 61° (ENE) 05:59:12 437.505
Gurwin Techsat 1B 24 Mar 05:52:39 05:56:21 19° 311° (NW) 06:00:03 435.225
AO-85 24 Mar 06:01:03 06:05:01 81° 43° (NE) 06:08:58 145.980
ITAMSAT 1 24 Mar 06:01:45 06:06:48 50° 296° (WNW) 06:11:47 435.822/435.867
Oscar 19 24 Mar 06:02:23 06:04:16 12° 319° (NW) 06:06:09 437.125/150
CUBESAT XI-V 24 Mar 06:07:05 06:11:14 33° 265° (W) 06:15:24 437.345
STARS 24 Mar 06:08:39 06:12:52 42° 261° (W) 06:17:08 437.465
XW-2D 24 Mar 06:31:38 06:33:04 12° 85° (E) 06:34:30 145.860 - 145.880
XW-2B 24 Mar 06:37:12 06:39:00 13° 86° (E) 06:40:48 145.730 - 145.750
DOVE 4 24 Mar 06:39:23 06:43:46 26° 89° (E) 06:48:10 437.250
NUDT-PHONESAT 24 Mar 06:41:27 06:42:49 12° 85° (E) 06:44:12 437.300
KAITUO 1B 24 Mar 06:44:50 06:46:33 13° 86° (E) 06:48:16 145.475/437.950
XW-2C 24 Mar 06:46:47 06:49:11 16° 89° (E) 06:51:35 145.795 - 145.815
BEESAT 3 24 Mar 06:47:49 06:51:42 43° 30° (NNE) 06:55:34 437.485
AO-7 24 Mar 06:50:50 06:58:55 58° 304° (WNW) 07:06:58 .
BEESAT 2 24 Mar 06:57:01 07:00:45 33° 24° (NNE) 07:04:28 435.950
FO-29 24 Mar 07:17:49 07:19:25 11° 25° (NNE) 07:21:00 435.910
M-CUBED/EXP-1 PRIME 24 Mar 07:27:01 07:29:59 22° 263° (W) 07:33:08 437.505
STRAND 1 24 Mar 07:27:24 07:32:31 69° 69° (ENE) 07:37:40 437.568
CUTE-I 24 Mar 07:30:54 07:35:57 40° 97° (E) 07:40:58 437.470
LilacSat-2 24 Mar 07:36:17 07:39:59 47° 100° (E) 07:43:37 437.200
XW-2F 24 Mar 07:39:59 07:43:38 48° 100° (E) 07:47:15 145.980 - 146.000
CUTE 1.7 + AOD 2 24 Mar 07:40:17 07:40:34 10° 82° (E) 07:40:50 437.475
AO-85 24 Mar 07:42:07 07:44:57 19° 241° (WSW) 07:47:49 145.980
ITAMSAT 1 24 Mar 07:42:37 07:45:12 14° 318° (NW) 07:47:47 435.822/435.867
YUBILEINY 24 Mar 07:57:35 08:05:18 37° 82° (E) 08:12:59 435.215
HO-68 24 Mar 07:58:40 08:04:18 24° 87° (E) 08:09:54 435.675
PRISM 24 Mar 08:00:20 08:01:18 11° 47° (NE) 08:02:16 437.425
XW-2D 24 Mar 08:04:06 08:07:53 88° 91° (E) 08:11:39 145.860 - 145.880
XW-2B 24 Mar 08:09:59 08:13:46 83° 286° (WNW) 08:17:31 145.730 - 145.750
NUDT-PHONESAT 24 Mar 08:13:39 08:17:22 90° 102° (ESE) 08:21:04 437.300
DOVE 4 24 Mar 08:16:39 08:21:55 69° 289° (WNW) 08:27:11 437.250
KAITUO 1B 24 Mar 08:17:25 08:21:08 83° 289° (WNW) 08:24:51 145.475/437.950
XW-2C 24 Mar 08:20:05 08:23:50 66° 289° (WNW) 08:27:32 145.795 - 145.815
BEESAT 3 24 Mar 08:25:31 08:29:24 46° 231° (SW) 08:33:15 437.485
CUBEBUG 2 24 Mar 08:28:02 08:30:48 16° 85° (E) 08:33:30 437.445
BEESAT 2 24 Mar 08:34:48 08:38:52 75° 226° (SW) 08:42:55 435.950
AO-7 24 Mar 08:43:59 08:50:14 25° 328° (NNW) 08:56:28 .
FO-29 24 Mar 08:56:16 09:02:19 27° 48° (NE) 09:07:58 435.910
AAUSAT CUBESAT 2 24 Mar 09:04:24 09:07:41 22° 91° (E) 09:10:58 437.432
STRAND 1 24 Mar 09:07:59 09:12:11 25° 269° (W) 09:16:24 437.568
XW-2A 24 Mar 09:08:29 09:11:55 75° 104° (ESE) 09:15:19 145.665 - 145.685
CUTE-I 24 Mar 09:11:00 09:16:07 45° 298° (WNW) 09:21:12 437.470
LilacSat-2 24 Mar 09:11:01 09:14:03 23° 299° (WNW) 09:17:04 437.200
SEEDS 24 Mar 09:11:27 09:15:29 44° 98° (E) 09:19:30 437.485
CUTE 1.7 + AOD 2 24 Mar 09:13:04 09:17:16 65° 102° (ESE) 09:21:27 437.475
XW-2F 24 Mar 09:14:35 09:17:34 23° 299° (WNW) 09:20:32 145.980 - 146.000
AO-73 24 Mar 09:17:20 09:20:00 16° 86° (E) 09:22:37 145.935
TIGRISAT 24 Mar 09:22:09 09:26:04 27° 59° (ENE) 09:29:58 435.000
UNISAT 6 24 Mar 09:31:10 09:35:20 33° 61° (ENE) 09:39:29 437.425
PRISM 24 Mar 09:31:46 09:35:43 51° 68° (ENE) 09:39:43 437.425
UWE-3 24 Mar 09:35:40 09:39:48 37° 96° (E) 09:43:47 435.000/436.395/437.385
NO-84 24 Mar 09:36:13 09:38:27 21° 146° (SE) 09:40:45 435.350 FM
XW-2D 24 Mar 09:39:27 09:41:34 15° 305° (NW) 09:43:40 145.860 - 145.880
XW-2B 24 Mar 09:45:29 09:47:24 14° 306° (NW) 09:49:17 145.730 - 145.750
HO-68 24 Mar 09:45:51 09:53:04 86° 110° (ESE) 10:00:16 435.675
NUDT-PHONESAT 24 Mar 09:48:47 09:50:46 14° 305° (NW) 09:52:44 437.300
KAITUO 1B 24 Mar 09:52:47 09:54:35 13° 306° (NW) 09:56:24 145.475/437.950
YUBILEINY 24 Mar 09:52:49 10:01:34 72° 286° (WNW) 10:10:19 435.215
DOVE 4 24 Mar 09:55:19 09:58:47 18° 310° (NW) 10:02:16 437.250
XW-2C 24 Mar 09:56:07 09:57:20 11° 308° (NW) 09:58:33 145.795 - 145.815
CUBEBUG 2 24 Mar 10:03:32 10:08:07 88° 287° (WNW) 10:12:31 437.445
AIST 2D 24 Mar 10:10:16 10:11:22 11° 53° (NE) 10:12:27 435.315
BEESAT 2 24 Mar 10:13:44 10:16:00 15° 246° (WSW) 10:18:16 435.950
Oscar 11 24 Mar 10:19:58 10:24:09 47° 99° (E) 10:28:19 .
ZACube-1 24 Mar 10:22:30 10:26:48 60° 101° (E) 10:30:58 437.345
NANOSAT C BR1 24 Mar 10:32:45 10:35:15 15° 52° (NE) 10:37:46 145.865
EO-79 24 Mar 10:35:18 10:38:05 17° 53° (NE) 10:40:51 145.935-145.965
AO-7 24 Mar 10:35:53 10:40:19 16° 355° (N) 10:44:45 .
FO-29 24 Mar 10:38:43 10:46:29 76° 69° (ENE) 10:53:41 435.910
AAUSAT CUBESAT 2 24 Mar 10:39:24 10:43:28 54° 290° (WNW) 10:47:30 437.432
PCSat 24 Mar 10:42:00 10:46:05 22° 110° (ESE) 10:50:11 145.827
XW-2A 24 Mar 10:42:20 10:44:15 14° 303° (WNW) 10:46:09 145.665 - 145.685
DELFI C3 24 Mar 10:47:19 10:50:53 31° 95° (E) 10:54:27 145.870
SEEDS 24 Mar 10:47:26 10:51:02 29° 298° (WNW) 10:54:39 437.485
CUTE 1.7 + AOD 2 24 Mar 10:49:32 10:52:46 22° 302° (WNW) 10:55:59 437.475
AO-73 24 Mar 10:52:32 10:56:52 81° 286° (WNW) 11:01:04 145.935
CUTE-I 24 Mar 10:52:34 10:55:00 13° 319° (NW) 10:57:25 437.470
TIGRISAT 24 Mar 10:57:50 11:02:30 59° 259° (WSW) 11:07:07 435.000
POLYITAN 1 24 Mar 11:01:36 11:05:09 26° 59° (ENE) 11:08:43 437.675
QB50P2 24 Mar 11:05:54 11:09:37 29° 61° (ENE) 11:13:19 145.880/145.840
UNISAT 6 24 Mar 11:07:24 11:11:56 47° 261° (W) 11:16:28 437.425
PRISM 24 Mar 11:08:00 11:11:17 23° 267° (W) 11:14:36 437.425
UWE-3 24 Mar 11:12:13 11:16:17 36° 296° (WNW) 11:20:12 435.000/436.395/437.385
NO-84 24 Mar 11:12:44 11:15:36 63° 166° (SSE) 11:18:36 435.350 FM
DUCHIFAT 1 24 Mar 11:22:00 11:25:47 32° 62° (ENE) 11:29:35 145.980
HO-68 24 Mar 11:34:04 11:40:11 32° 312° (NW) 11:46:18 435.675
LO-87 24 Mar 11:35:39 11:37:52 15° 89° (E) 11:40:05 145.935 - 145.965
AIST 2D 24 Mar 11:40:25 11:43:57 72° 73° (ENE) 11:47:30 435.315
CUBEBUG 2 24 Mar 11:41:05 11:44:07 18° 307° (NW) 11:47:06 437.445
BUGSAT 1 24 Mar 11:48:58 11:52:26 25° 58° (ENE) 11:55:54 437.445
YUBILEINY 24 Mar 11:53:17 12:00:12 25° 313° (NW) 12:07:08 435.215
Oscar 11 24 Mar 11:56:25 12:00:09 29° 299° (WNW) 12:03:51 .
ZACube-1 24 Mar 11:59:20 12:02:46 23° 302° (WNW) 12:06:08 437.345
NANOSAT C BR1 24 Mar 12:06:04 12:10:20 78° 72° (ENE) 12:14:38 145.865
EO-79 24 Mar 12:08:59 12:13:17 88° 66° (ENE) 12:17:36 145.935-145.965
ESTCUBE 1 24 Mar 12:15:12 12:18:50 23° 91° (E) 12:22:28 437.505/2401.250
AAUSAT CUBESAT 2 24 Mar 12:16:54 12:18:05 11° 311° (NW) 12:19:16 437.432
DELFI C3 24 Mar 12:22:05 12:25:44 36° 295° (WNW) 12:29:25 145.870
Gurwin Techsat 1B 24 Mar 12:23:16 12:26:51 19° 48° (NE) 12:30:26 435.225
PCSat 24 Mar 12:23:24 12:28:50 88° 131° (SE) 12:34:20 145.827
AO-7 24 Mar 12:24:40 12:30:11 20° 23° (NNE) 12:35:41 .
FO-29 24 Mar 12:25:09 12:32:03 34° 269° (W) 12:38:34 435.910
Oscar 19 24 Mar 12:28:14 12:32:26 26° 55° (NE) 12:36:40 437.125/150
AO-73 24 Mar 12:29:54 12:32:28 16° 308° (NW) 12:34:59 145.935
POLYITAN 1 24 Mar 12:36:30 12:40:43 54° 259° (W) 12:44:58 437.675
TIGRISAT 24 Mar 12:39:09 12:40:09 11° 279° (W) 12:41:09 435.000
QB50P2 24 Mar 12:41:07 12:45:15 46° 260° (W) 12:49:26 145.880/145.840
NO-84 24 Mar 12:50:06 12:53:03 74° 189° (S) 12:56:13 435.350 FM
RS-15 24 Mar 12:55:55 13:05:24 28° 101° (ESE) 13:15:01 29.354- 29.394
DUCHIFAT 1 24 Mar 12:57:20 13:01:23 41° 262° (W) 13:05:27 145.980
SPROUT 24 Mar 13:05:57 13:09:19 22° 91° (E) 13:12:38 437.525
LO-87 24 Mar 13:08:06 13:11:45 67° 288° (WNW) 13:15:23 145.935 - 145.965
AIST 2D 24 Mar 13:15:48 13:17:39 14° 272° (W) 13:19:30 435.315
HO-68 24 Mar 13:22:39 13:25:53 14° 337° (NNW) 13:29:06 435.675
BUGSAT 1 24 Mar 13:23:19 13:27:31 57° 259° (WSW) 13:31:44 437.445
DX 1 24 Mar 13:24:27 13:27:23 17° 89° (E) 13:30:17 434.975-435.025
VELOX 1 24 Mar 13:38:22 13:42:40 44° 99° (E) 13:46:56 145.980
NANOSAT C BR1 24 Mar 13:43:48 13:46:36 17° 272° (W) 13:49:25 145.865
EO-79 24 Mar 13:47:10 13:49:40 15° 273° (W) 13:52:11 145.935-145.965
ESTCUBE 1 24 Mar 13:51:34 13:56:01 59° 291° (WNW) 14:00:27 437.505/2401.250
YUBILEINY 24 Mar 13:58:42 14:01:19 11° 346° (NNW) 14:03:56 435.215
Gurwin Techsat 1B 24 Mar 14:00:42 14:06:00 71° 69° (ENE) 14:11:20 435.225
Oscar 19 24 Mar 14:06:17 14:11:23 71° 256° (WSW) 14:16:33 437.125/150
PCSat 24 Mar 14:07:52 14:12:51 35° 335° (NNW) 14:17:51 145.827
UKube-1 24 Mar 14:09:02 14:12:52 30° 95° (E) 14:16:41 .
ITAMSAT 1 24 Mar 14:09:47 14:13:59 25° 53° (NE) 14:18:11 435.822/435.867
AO-7 24 Mar 14:13:23 14:21:01 42° 48° (NE) 14:28:39 .
50 SAT 24 Mar 14:16:56 14:20:27 70° 103° (ESE) 14:23:57 437.505
NO-84 24 Mar 14:27:36 14:30:23 32° 207° (SSW) 14:33:23 435.350 FM
SPROUT 24 Mar 14:41:20 14:45:36 60° 291° (WNW) 14:49:50 437.525
LO-87 24 Mar 14:43:24 14:44:32 11° 308° (NW) 14:45:40 145.935 - 145.965
BEESAT 24 Mar 14:56:22 14:57:28 11° 82° (E) 14:58:33 436.000
DX 1 24 Mar 14:59:42 15:04:08 80° 288° (WNW) 15:08:31 434.975-435.025
RS-15 24 Mar 15:03:50 15:15:54 74° 128° (SE) 15:28:13 29.354- 29.394
ITUPSAT 1 24 Mar 15:09:51 15:12:18 14° 85° (E) 15:14:46 437.325
VELOX 1 24 Mar 15:15:03 15:19:02 32° 299° (WNW) 15:23:01 145.980
ESTCUBE 1 24 Mar 15:29:52 15:31:59 13° 312° (NW) 15:34:08 437.505/2401.250
MOZHAYETS 4 24 Mar 15:34:33 15:35:38 11° 82° (E) 15:36:44
Gurwin Techsat 1B 24 Mar 15:42:10 15:46:29 25° 270° (W) 15:50:50 435.225
UKube-1 24 Mar 15:44:55 15:49:04 44° 295° (WNW) 15:53:12 .
ITAMSAT 1 24 Mar 15:47:44 15:53:00 78° 254° (WSW) 15:58:16 435.822/435.867
Oscar 19 24 Mar 15:49:03 15:51:41 14° 277° (W) 15:54:20 437.125/150
50 SAT 24 Mar 15:50:56 15:53:06 16° 303° (WNW) 15:55:17 437.505
PCSat 24 Mar 15:53:13 15:57:42 25° 0° (N) 16:02:11 145.827
YUBILEINY 24 Mar 15:59:56 16:03:33 13° 21° (NNE) 16:07:09 435.215
AO-7 24 Mar 16:05:07 16:13:26 72° 252° (WSW) 16:21:48 .
DOVE 4 24 Mar 16:17:43 16:19:51 13° 44° (NE) 16:22:03 437.250
SPROUT 24 Mar 16:18:49 16:20:43 13° 311° (NW) 16:22:36 437.525
SO-50 24 Mar 16:20:49 16:24:41 27° 121° (ESE) 16:28:32 436.795
BEESAT 24 Mar 16:31:33 16:36:18 59° 102° (ESE) 16:41:00 436.000
DX 1 24 Mar 16:36:56 16:39:41 16° 309° (NW) 16:42:25 434.975-435.025
ITUPSAT 1 24 Mar 16:46:11 16:51:00 76° 105° (ESE) 16:55:46 437.325
HO-68 24 Mar 16:51:34 16:55:41 17° 30° (NNE) 16:59:47 435.675
LilacSat-2 24 Mar 16:53:34 16:55:07 12° 53° (NE) 16:56:42 437.200
XW-2F 24 Mar 16:56:29 16:57:59 12° 52° (NE) 16:59:28 145.980 - 146.000
KKS-1 24 Mar 17:08:01 17:11:12 19° 89° (E) 17:14:23 437.445
MOZHAYETS 4 24 Mar 17:09:13 17:13:46 63° 102° (ESE) 17:18:17
RS-15 24 Mar 17:16:50 17:29:06 65° 338° (NNW) 17:41:25 29.354- 29.394
XW-2D 24 Mar 17:19:28 17:22:10 19° 58° (ENE) 17:24:54 145.860 - 145.880
CUTE-I 24 Mar 17:21:28 17:26:02 29° 56° (NE) 17:30:37 437.470
UKube-1 24 Mar 17:23:33 17:24:06 10° 316° (NW) 17:24:40 .
XW-2B 24 Mar 17:25:10 17:28:01 20° 59° (ENE) 17:30:52 145.730 - 145.750
NUDT-PHONESAT 24 Mar 17:27:27 17:30:03 18° 58° (ENE) 17:32:39 437.300
O/OREOS (USA 219) 24 Mar 17:28:16 17:30:48 15° 99° (E) 17:33:22 437.305
ITAMSAT 1 24 Mar 17:30:09 17:33:21 16° 275° (W) 17:36:32 435.822/435.867
KAITUO 1B 24 Mar 17:31:38 17:34:22 20° 59° (ENE) 17:37:07 145.475/437.950
XW-2C 24 Mar 17:34:55 17:38:01 24° 62° (ENE) 17:41:09 145.795 - 145.815
PCSat 24 Mar 17:37:30 17:42:32 36° 26° (NNE) 17:47:32 145.827
STARS 24 Mar 17:50:31 17:54:00 22° 91° (E) 17:57:26 437.465
DOVE 4 24 Mar 17:51:49 17:56:25 49° 66° (ENE) 18:01:19 437.250
CUBESAT XI-V 24 Mar 17:55:11 17:59:31 37° 96° (E) 18:03:51 437.345
YUBILEINY 24 Mar 17:56:41 18:04:12 31° 53° (NE) 18:11:40 435.215
SO-50 24 Mar 18:00:11 18:04:50 75° 322° (NW) 18:09:24 436.795
AO-7 24 Mar 18:01:45 18:07:46 21° 275° (W) 18:13:48 .
BEESAT 24 Mar 18:09:47 18:13:49 28° 303° (WNW) 18:17:49 436.000
XW-2A 24 Mar 18:16:19 18:17:50 12° 55° (NE) 18:19:21 145.665 - 145.685
ITUPSAT 1 24 Mar 18:24:40 18:28:24 23° 306° (NW) 18:32:06 437.325
LilacSat-2 24 Mar 18:24:56 18:28:46 71° 72° (ENE) 18:32:35 437.200
XW-2F 24 Mar 18:27:41 18:31:28 70° 72° (ENE) 18:35:16 145.980 - 146.000
HO-68 24 Mar 18:35:09 18:41:43 41° 54° (NE) 18:48:18 435.675
SEEDS 24 Mar 18:36:43 18:39:05 15° 53° (NE) 18:41:26 437.485
CUTE 1.7 + AOD 2 24 Mar 18:38:21 18:41:26 20° 57° (ENE) 18:44:33 437.475
KKS-1 24 Mar 18:43:47 18:48:18 75° 290° (WNW) 18:52:47 437.445
MOZHAYETS 4 24 Mar 18:46:55 18:50:37 25° 302° (WNW) 18:54:18
XW-2D 24 Mar 18:52:14 18:56:01 64° 257° (WSW) 18:59:50 145.860 - 145.880
M-CUBED/EXP-1 PRIME 24 Mar 18:57:36 19:00:20 15° 93° (E) 19:03:05 437.505
XW-2B 24 Mar 18:58:09 19:01:56 58° 259° (W) 19:05:42 145.730 - 145.750
NUDT-PHONESAT 24 Mar 18:59:53 19:03:37 65° 257° (WSW) 19:07:22 437.300
CUTE-I 24 Mar 19:00:23 19:05:45 68° 257° (WSW) 19:11:09 437.470
KAITUO 1B 24 Mar 19:04:23 19:08:05 59° 258° (WSW) 19:11:48 145.475/437.950
O/OREOS (USA 219) 24 Mar 19:04:56 19:09:29 82° 119° (ESE) 19:14:06 437.305
UWE-3 24 Mar 19:05:12 19:08:02 16° 52° (NE) 19:10:50 435.000/436.395/437.385
XW-2C 24 Mar 19:08:23 19:12:03 45° 260° (W) 19:15:44 145.795 - 145.815
PCSat 24 Mar 19:21:01 19:26:30 85° 229° (SW) 19:31:57 145.827
STARS 24 Mar 19:26:19 19:30:44 63° 291° (WNW) 19:35:07 437.465
DOVE 4 24 Mar 19:30:05 19:34:20 32° 268° (W) 19:38:51 437.250
RS-15 24 Mar 19:31:37 19:43:50 58° 10° (N) 19:55:53 29.354- 29.394
STRAND 1 24 Mar 19:31:43 19:34:11 13° 83° (E) 19:36:39 437.568
CUBEBUG 2 24 Mar 19:32:21 19:36:35 33° 62° (ENE) 19:40:48 437.445
CUBESAT XI-V 24 Mar 19:32:39 19:36:56 39° 296° (WNW) 19:41:16 437.345
SO-50 24 Mar 19:41:47 19:45:54 31° 344° (NNW) 19:49:59 436.795
XW-2A 24 Mar 19:46:35 19:50:04 87° 75° (ENE) 19:53:33 145.665 - 145.685
Oscar 11 24 Mar 19:47:34 19:50:23 17° 54° (NE) 19:53:13 .
ZACube-1 24 Mar 19:50:09 19:53:38 22° 57° (ENE) 19:57:03 437.345
YUBILEINY 24 Mar 19:53:33 20:02:20 89° 79° (E) 20:11:04 435.215
LilacSat-2 24 Mar 20:01:08 20:03:30 16° 272° (W) 20:05:52 437.200
AAUSAT CUBESAT 2 24 Mar 20:01:19 20:05:07 38° 65° (ENE) 20:08:57 437.432
XW-2F 24 Mar 20:03:45 20:06:05 15° 272° (W) 20:08:24 145.980 - 146.000
SEEDS 24 Mar 20:09:59 20:14:08 79° 73° (ENE) 20:18:19 437.485
CUTE 1.7 + AOD 2 24 Mar 20:12:41 20:16:53 71° 257° (WSW) 20:21:07 437.475
AO-73 24 Mar 20:19:10 20:23:11 33° 63° (ENE) 20:27:09 145.935
KKS-1 24 Mar 20:21:26 20:24:11 16° 310° (NW) 20:26:56 437.445
HO-68 24 Mar 20:22:09 20:29:14 63° 256° (WSW) 20:36:22 435.675
M-CUBED/EXP-1 PRIME 24 Mar 20:30:49 20:35:23 81° 112° (ESE) 20:40:04 437.505
